Lexington Weather

Lexington, Massachusetts, USA

46°F
12/8/2022 3:46pm 
  • Lexington Conditions: Clear
  • Temperature: 46.0°F / 7.8°CColder 2.6°F than last hour.
  • Dew Point: 34.2°FDecreased 1.0°Fsince last hour.
  • Relative Humidity: 63%Increased 3.0% since last hour.
  • Wind: Wind from NNW NNW 4 mph, 10-min avg: 1 mph, gust: 9 mph
  • Barometer: 30.10 inRising 0.03  inHg/hr Rising Slowly
  • Visibility: 10 miles
  • Rain Today: 0.00 in
  •   

Warning: Undefined variable $rc in /homepages/6/d276339138/htdocs/weather/20190804/ssi/nwsProduct.php on line 323

Warning: Undefined variable $rc in /homepages/6/d276339138/htdocs/weather/20190804/ssi/nwsProduct.php on line 325

Warning: Undefined variable $rc in /homepages/6/d276339138/htdocs/weather/20190804/ssi/nwsProduct.php on line 323

Warning: Undefined variable $rc in /homepages/6/d276339138/htdocs/weather/20190804/ssi/nwsProduct.php on line 325

Warning: Undefined variable $rc in /homepages/6/d276339138/htdocs/weather/20190804/ssi/nwsProduct.php on line 323

Warning: Undefined variable $rc in /homepages/6/d276339138/htdocs/weather/20190804/ssi/nwsProduct.php on line 325

Warning: Undefined variable $rc in /homepages/6/d276339138/htdocs/weather/20190804/ssi/nwsProduct.php on line 323

Warning: Undefined variable $rc in /homepages/6/d276339138/htdocs/weather/20190804/ssi/nwsProduct.php on line 325

Warning: Undefined variable $rc in /homepages/6/d276339138/htdocs/weather/20190804/ssi/nwsProduct.php on line 323

Warning: Undefined variable $rc in /homepages/6/d276339138/htdocs/weather/20190804/ssi/nwsProduct.php on line 325

Warning: Undefined variable $rc in /homepages/6/d276339138/htdocs/weather/20190804/ssi/nwsProduct.php on line 323

Warning: Undefined variable $rc in /homepages/6/d276339138/htdocs/weather/20190804/ssi/nwsProduct.php on line 325

Warning: Undefined variable $rc in /homepages/6/d276339138/htdocs/weather/20190804/ssi/nwsProduct.php on line 323

Warning: Undefined variable $rc in /homepages/6/d276339138/htdocs/weather/20190804/ssi/nwsProduct.php on line 325

Regional Weather Roundup
for Boston, MA

        
000
ASUS41 KBOX 080410
RWRBOX

REGIONAL WEATHER ROUNDUP
NATIONAL WEATHER SERVICE BOSTON/NORTON MA
1100 PM EST WED DEC 07 2022

NOTE:  "FAIR" INDICATES FEW OR NO CLOUDS BELOW 12,000 FEET WITH NO 
SIGNIFICANT WEATHER AND/OR OBSTRUCTIONS TO VISIBILITY.

MAZALL-080500-
EASTERN MASSACHUSETTS
  
CITY           SKY/WX    TMP DP  RH WIND       PRES   REMARKS
BOSTON         MOCLDY    59  56  89 W10       30.00F                  
BEVERLY        CLOUDY    56  55  97 W7        29.98F                  
LAWRENCE       MOCLDY    56  55  97 W6        30.01R                  
BEDFORD        PTCLDY    56  54  93 W5        29.99S                  
NORWOOD        CLOUDY    60  55  83 W6        30.00F                  
MARSHFIELD       N/A     57  55  94 W5        29.99F                  
PLYMOUTH       CLOUDY    57  56  96 SW9       30.00F                  
TAUNTON          N/A    N/A N/A N/A MISG      30.01F                  
NEW BEDFORD    CLOUDY    57  57 100 W7        30.00F                  
$$

MAZALL-080500-
CAPE COD AND THE ISLANDS
  
CITY           SKY/WX    TMP DP  RH WIND       PRES   REMARKS
FALMOUTH       FOG       54  54 100 W8        30.01F VSB 1/4          
HYANNIS        CLOUDY    55  55 100 W12       29.98F                  
CHATHAM        FOG       54  52  93 SW6       30.02F VSB 3/4          
PROVINCETOWN   FOG       53  53 100 SW10      30.00F VSB 1/2          
NANTUCKET      FOG      N/A N/A N/A SW13      30.02F VSB 1/2          
MARTHAS VNYRD  FOG       56  56 100 W10G17    30.01F VSB 1            
$$
 
MAZALL-080500-
CENTRAL AND WESTERN MASSACHUSETTS
  
CITY           SKY/WX    TMP DP  RH WIND       PRES   REMARKS
WORCESTER      CLOUDY    57  53  86 W12       30.03R                  
FITCHBURG      CLOUDY    55  51  86 NW6       30.02S                  
ORANGE         MOCLDY    53  51  93 CALM      30.05R                  
SPRINGFIELD    PTCLDY    53  50  89 CALM      30.03R                  
WESTFIELD      PTCLDY    54  48  80 NW9       30.06R                  
NORTH ADAMS    CLOUDY    51  46  83 NW10G18   30.09R                  
PITTSFIELD     CLOUDY    48  45  89 VRB6      30.09R                  
$$
 
RIZALL-080500-
RHODE ISLAND
  
CITY           SKY/WX    TMP DP  RH WIND       PRES   REMARKS
PROVIDENCE     CLOUDY    57  56  96 W9        30.02F                  
NEWPORT        CLOUDY    55  55 100 W5        30.02S FOG              
BLOCK ISLAND   CLOUDY    53  52  96 W12       30.05F FOG              
SMITHFIELD     MOCLDY    56  56 100 W10       30.02S                  
WESTERLY       FOG       54  54 100 SW5       30.04S VSB 1            
$$
 
CTZALL-080500-
CONNECTICUT
  
CITY           SKY/WX    TMP DP  RH WIND       PRES   REMARKS
BRADLEY INTL   PTCLDY    57  49  74 NW16G22   30.06R                  
HARTFORD       MOCLDY    59  54  83 W8        30.06R                  
BRIDGEPORT     MOCLDY    52  52 100 SW5       30.08R                  
DANBURY        CLOUDY    52  50  93 CALM      30.10R FOG              
GROTON         CLOUDY    57  55  93 W7        30.04S FOG              
NEW HAVEN      CLOUDY    53  52  96 W3        30.07R FOG              
CHESTER        CLOUDY    55  55 100 VRB6      30.05S FOG              
MERIDEN        CLOUDY    57  52  83 CALM      30.07R                  
WILLIMANTIC    CLOUDY    57  56  96 W5        30.05R                  
OXFORD         CLOUDY    54  53  97 NW6       30.08R                  
$$

MEZ002-015-021-024-NHZ003-005-008-011-012-014-VTZ005-008-080500-
NORTHERN NEW ENGLAND
  
CITY           SKY/WX    TMP DP  RH WIND       PRES   REMARKS
PORTLAND ME    CLOUDY    47  47 100 NW5       29.98F FOG              
BANGOR ME      LGT RAIN  50  50 100 SE3       29.97F                  
CONCORD NH     CLOUDY    47  46  97 MISG      30.02S                  
MANCHESTER NH  FOG       52  50  93 N7        30.00R VSB 1/4          
NASHUA NH      CLOUDY    52  32  46 NW3       30.01R                  
PORTSMOUTH NH  FOG       53  53 100 W7        29.98F VSB 3/4          
JAFFREY NH     MOCLDY    56  51  84 W8        30.02S                  
KEENE NH       CLOUDY    52  52 100 CALM        N/A                   
BURLINGTON VT  CLOUDY    44  41  89 N7        30.13R                  
MT. WASHINGTON FOG       32  32 100 W55         N/A  VSB 0   WCI  14  
$$

NYZ052-076-080500-
EASTERN NEW YORK
  
CITY           SKY/WX    TMP DP  RH WIND       PRES   REMARKS
ALBANY         PTCLDY    48  44  86 W14       30.13R                  
NEW YORK CITY  PTCLDY    56  50  80 W10       30.11R                  
$$
 
ANZALL-080500-
MARINE OBSERVATIONS
  
STATION/POSITION TIME  TEMP    WIND        PRES    VSBY  WAVE
                       AIR SEA DIR/SP/G                  HT/PER
                 (UTC) (F)     (DEG/KT/KT) (MB)    (MI)  (FT/S)
BOSTON BUOY      0350      50  230/  6/  8 1015.8F         4/ 8
BUZZARDS BAY     0300   54     240/ 20/ 21 1017.0F
NANTUCKET SOUND  0350   53     230/  8/ 10 1016.3F         2/ 3
MASS BAY-STELLWA 0204   52 50  180/  8/ 10 1015.2S  1 7/8  6/ 8
ISLE OF SHOALS   0300   55     220/  9/  9 1014.8F
S OF BLOCK IS    0356      55                N/A           5/ 9
$$

......................KEY.........................
  SKY/WX - SKY CONDITION/PRESENT WEATHER
  TMP    - TEMPERATURE IN FAHRENHEIT
  DWPT   - DEWPOINT IN FAHRENHEIT
  RH     - RELATIVE HUMIDITY IN PERCENT
  WIND   - DIRECTION AND SPEED IN MPH
  PRES   - MEAN SEA LEVEL PRESSURE IN INCHES OF HG
  WCI    - WIND CHILL INDEX
  VSB    - VISIBILITY IN MILES
  HX     - HEAT INDEX
  TC     - TEMPERATURE IN CELSIUS
  VRB    - VARIABLE WIND DIRECTION
  N/A    - NOT AVAILABLE
  
      

Other recent Regional Weather Roundups

Thu Dec 8, 3:10pm

Thu Dec 8, 2:10pm

Thu Dec 8, 1:10pm

Thu Dec 8, 12:10pm

Thu Dec 8, 11:10am

Thu Dec 8, 10:10am

Thu Dec 8, 9:10am

Thu Dec 8, 8:10am

Thu Dec 8, 7:10am

Thu Dec 8, 6:10am

Thu Dec 8, 5:10am

Thu Dec 8, 4:10am

Thu Dec 8, 3:10am

Thu Dec 8, 2:10am

Thu Dec 8, 1:10am

Thu Dec 8, 12:10am

Wed Dec 7, 10:10pm

Wed Dec 7, 9:10pm

Wed Dec 7, 8:10pm

Wed Dec 7, 7:10pm

Wed Dec 7, 6:10pm

Wed Dec 7, 5:10pm

Wed Dec 7, 4:10pm

Wed Dec 7, 3:10pm

Wed Dec 7, 2:10pm

Wed Dec 7, 1:10pm

Wed Dec 7, 12:10pm

Wed Dec 7, 11:10am

Wed Dec 7, 10:10am

Wed Dec 7, 9:10am

Wed Dec 7, 8:10am

Wed Dec 7, 7:10am

Wed Dec 7, 6:10am

Wed Dec 7, 5:10am

Wed Dec 7, 4:10am

Wed Dec 7, 3:10am

Wed Dec 7, 2:10am

Wed Dec 7, 1:10am

Wed Dec 7, 12:10am

Tue Dec 6, 11:10pm

Tue Dec 6, 10:10pm

Tue Dec 6, 9:10pm

Tue Dec 6, 8:10pm

Tue Dec 6, 7:10pm

Tue Dec 6, 6:10pm

Tue Dec 6, 5:10pm

Tue Dec 6, 4:10pm

Tue Dec 6, 3:10pm

Tue Dec 6, 2:10pm

Tue Dec 6, 1:10pm

Tue Dec 6, 12:10pm

Tue Dec 6, 11:10am

Tue Dec 6, 10:10am

Tue Dec 6, 9:10am

Tue Dec 6, 8:10am

Tue Dec 6, 7:10am

Tue Dec 6, 6:10am

Tue Dec 6, 5:10am

Tue Dec 6, 4:10am

Tue Dec 6, 3:10am

Tue Dec 6, 2:10am

Tue Dec 6, 1:10am

Tue Dec 6, 12:10am

Mon Dec 5, 11:10pm

Mon Dec 5, 10:10pm

Mon Dec 5, 9:10pm

Mon Dec 5, 8:10pm

Mon Dec 5, 7:10pm

Mon Dec 5, 6:10pm

Mon Dec 5, 5:10pm

Mon Dec 5, 4:10pm

Mon Dec 5, 3:10pm

Mon Dec 5, 2:10pm

Mon Dec 5, 1:10pm

Mon Dec 5, 12:10pm

Mon Dec 5, 11:10am

Mon Dec 5, 10:10am

Mon Dec 5, 9:10am

Mon Dec 5, 8:10am

Mon Dec 5, 7:10am

Mon Dec 5, 6:10am

Mon Dec 5, 5:10am

Mon Dec 5, 4:10am

Mon Dec 5, 3:10am

Mon Dec 5, 2:10am

Mon Dec 5, 1:10am

Mon Dec 5, 12:10am

Sun Dec 4, 11:10pm

Sun Dec 4, 10:10pm

Sun Dec 4, 9:10pm

Sun Dec 4, 8:10pm

Sun Dec 4, 7:10pm

Sun Dec 4, 6:10pm

Sun Dec 4, 5:10pm

Sun Dec 4, 4:10pm

Sun Dec 4, 3:10pm

Sun Dec 4, 2:10pm

Sun Dec 4, 1:10pm

Sun Dec 4, 12:10pm

Sun Dec 4, 11:10am

Sun Dec 4, 10:10am

Sun Dec 4, 9:10am

Sun Dec 4, 8:10am

Sun Dec 4, 7:10am

Sun Dec 4, 6:10am

Sun Dec 4, 5:10am

Sun Dec 4, 4:10am

Sun Dec 4, 3:10am

Sun Dec 4, 2:10am

Sun Dec 4, 1:10am

Sun Dec 4, 12:10am

Sat Dec 3, 11:10pm

Sat Dec 3, 10:10pm

Sat Dec 3, 9:10pm

Sat Dec 3, 8:10pm

Sat Dec 3, 7:10pm

Sat Dec 3, 6:10pm

Sat Dec 3, 5:10pm

Sat Dec 3, 4:10pm

Sat Dec 3, 3:10pm

Sat Dec 3, 2:10pm

Sat Dec 3, 1:10pm

Sat Dec 3, 12:10pm

Sat Dec 3, 11:10am

Sat Dec 3, 10:10am

Sat Dec 3, 9:10am

Sat Dec 3, 8:10am

Sat Dec 3, 7:10am

Sat Dec 3, 6:10am

Sat Dec 3, 5:10am

Sat Dec 3, 4:10am

Sat Dec 3, 3:10am

Sat Dec 3, 2:10am

Sat Dec 3, 1:10am

Sat Dec 3, 12:10am

Fri Dec 2, 11:10pm

Fri Dec 2, 10:10pm

Fri Dec 2, 9:10pm

Fri Dec 2, 8:10pm

Fri Dec 2, 7:10pm

Fri Dec 2, 6:10pm

Fri Dec 2, 5:10pm

Fri Dec 2, 4:10pm

Fri Dec 2, 3:10pm

Fri Dec 2, 2:10pm

Fri Dec 2, 1:10pm

Fri Dec 2, 12:10pm

Fri Dec 2, 11:10am

Fri Dec 2, 10:10am

Fri Dec 2, 9:10am

Fri Dec 2, 8:10am

Fri Dec 2, 7:10am

Fri Dec 2, 6:10am

Fri Dec 2, 5:10am

Fri Dec 2, 4:10am

Fri Dec 2, 3:10am

Fri Dec 2, 2:10am

Fri Dec 2, 1:10am

Fri Dec 2, 12:10am

Thu Dec 1, 11:10pm

Thu Dec 1, 10:10pm

Thu Dec 1, 9:10pm

Thu Dec 1, 8:10pm

Thu Dec 1, 7:10pm

Thu Dec 1, 6:10pm

Thu Dec 1, 5:10pm

Thu Dec 1, 4:10pm

Meta data:

ID: ec1c9e6d-a777-4937-990c-45c6f8588da9
Link: https://api.weather.gov/products/ec1c9e6d-a777-4937-990c-45c6f8588da9